Location: Newark
(50.8922°N, 11.6094°E)
Time: 01:59:09
(UTC+00:00)

N. Korean satellite - Pass Details

Date: 04 February 2020
Orbit: 456 x 505 km, 97.2° (Epoch: 21 February)

Event Time Altitude Azimuth Distance (km) Brightness Sun altitude
Rises 04:32:28 0° 21° (NNE) 2,574 10.5 -21.3°
Reaches altitude 10° 04:34:42 10° 31° (NNE) 1,696 9.7 -20.9°
Maximum altitude 04:38:00 32° 96° (E) 882 8.5 -20.4°
Drops below altitude 10° 04:41:19 10° 161° (SSE) 1,703 9.6 -19.9°
Sets 04:43:34 0° 171° (S) 2,587 10.4 -19.5°
